WetterOnline ( https://www.wetteronline.ch )

Wetter aktuell Garmisch-Partenkirchen

Aktuelles Wetter: Garmisch-Partenkirchen (719m)

6-stündlich | Neueste Meldungen
Ortszeit Temperatur Wetter
Mi, 22.01. 19:00 -3.7° C wolkenlos
Mi, 22.01. 13:00 4.6° C wolkenlos
Mi, 22.01. 7:00 -8.0° C leicht bewölkt
Mi, 22.01. 1:00 -7.8° C fast wolkenlos
Di, 21.01. 19:00 -6.3° C wolkenlos
Di, 21.01. 13:00 0.9° C wolkenlos
Di, 21.01. 7:00 -9.2° C wolkenlos
Di, 21.01. 1:00 -8.6° C wolkenlos
Ortszeit Temperatur Wetter
Mi, 22.01. 21:00 -3.3° C Nebel
Mi, 22.01. 20:50 -3.3° C Nebel
Mi, 22.01. 20:40 -3.3° C Nebel
Mi, 22.01. 20:30 -3.3° C Nebel
Mi, 22.01. 20:20 -3.3° C Nebel
Mi, 22.01. 20:10 -3.4° C Nebel
Mi, 22.01. 20:00 -4.5° C fast wolkenlos
Mi, 22.01. 19:30 -4.0° C wolkenlos
Mi, 22.01. 19:00 -3.7° C wolkenlos
Mi, 22.01. 18:30 -2.7° C wolkenlos
Mi, 22.01. 18:00 -2.8° C wolkenlos
Ortszeit Relative Feuchte Sichtweite
Mi, 22.01. 19:00 93% 13 km
Mi, 22.01. 13:00 59% >70 km
Mi, 22.01. 7:00 91% 60 km
Mi, 22.01. 1:00 92% 25 km
Di, 21.01. 19:00 93% 13 km
Di, 21.01. 13:00 60% 30 km
Di, 21.01. 7:00 91% 60 km
Di, 21.01. 1:00 92% 35 km
Ortszeit Relative Feuchte Sichtweite
Mi, 22.01. 21:00 98% 0.2 km
Mi, 22.01. 20:50 98% -
Mi, 22.01. 20:40 98% -
Mi, 22.01. 20:30 99% 0.3 km
Mi, 22.01. 20:20 99% -
Mi, 22.01. 20:10 99% -
Mi, 22.01. 20:00 93% 15 km
Mi, 22.01. 19:30 93% 11 km
Mi, 22.01. 19:00 93% 13 km
Mi, 22.01. 18:30 94% 18 km
Mi, 22.01. 18:00 89% 18 km
Ortszeit Niederschlagsmenge Niederschlagsart
Mi, 22.01. 19:00 0.0 l/m2 in 12 Std. -
Mi, 22.01. 13:00 0.0 l/m2 in 6 Std. -
Mi, 22.01. 7:00 0.0 l/m2 in 12 Std. -
Mi, 22.01. 1:00 0.0 l/m2 in 6 Std. -
Di, 21.01. 19:00 0.0 l/m2 in 12 Std. -
Di, 21.01. 13:00 0.0 l/m2 in 6 Std. -
Di, 21.01. 7:00 0.0 l/m2 in 12 Std. -
Di, 21.01. 1:00 0.0 l/m2 in 6 Std. -
Ortszeit Niederschlagsmenge Niederschlagsart
Mi, 22.01. 21:00 0.0 l/m2 in 1 Std. -
Mi, 22.01. 20:50 keine Meldung -
Mi, 22.01. 20:40 keine Meldung -
Mi, 22.01. 20:30 0.0 l/m2 in 1 Std. -
Mi, 22.01. 20:20 keine Meldung -
Mi, 22.01. 20:10 keine Meldung -
Mi, 22.01. 20:00 0.0 l/m2 in 1 Std. -
Mi, 22.01. 19:30 0.0 l/m2 in 1 Std. -
Mi, 22.01. 19:00 0.0 l/m2 in 1 Std. -
Mi, 22.01. 18:30 0.0 l/m2 in 1 Std. -
Mi, 22.01. 18:00 0.0 l/m2 in 1 Std. -
Ortszeit Stärke Spitze Richtung
km/h Bft. km/h Grad Sektor
Mi, 22.01. 19:00 4 1 25 240° SW
Mi, 22.01. 13:00 7 2 11 170° S
Mi, 22.01. 7:00 6 1 9 220° SW
Mi, 22.01. 1:00 4 1 7 220° SW
Di, 21.01. 19:00 4 1 14 210° SW
Di, 21.01. 13:00 7 2 11 80° O
Di, 21.01. 7:00 4 1 7 220° SW
Di, 21.01. 1:00 2 1 9 240° SW
Ortszeit Stärke Spitze Richtung
km/h Bft. km/h Grad Sektor
Mi, 22.01. 21:00 4 1 14 90° O
Mi, 22.01. 20:50 4 1 - 90° O
Mi, 22.01. 20:40 4 1 - 60° NO
Mi, 22.01. 20:30 7 2 14 80° O
Mi, 22.01. 20:20 7 2 - 80° O
Mi, 22.01. 20:10 7 2 - 70° O
Mi, 22.01. 20:00 2 1 6 70° O
Mi, 22.01. 19:30 0 0 4 - -
Mi, 22.01. 19:00 4 1 7 240° SW
Mi, 22.01. 18:30 4 1 7 40° NO
Mi, 22.01. 18:00 4 1 14 220° SW
Ortszeit Untergrenze Bedeckung Gattung
total tief tief mittel hoch
Mi, 22.01. 19:00 - 0/8 0/8 - - -
Mi, 22.01. 13:00 - 0/8 0/8 - - -
Mi, 22.01. 7:00 6900 m 3/8 3/8 - - -
Mi, 22.01. 1:00 8100 m 2/8 0/8 - - -
Di, 21.01. 19:00 - 0/8 0/8 - - -
Di, 21.01. 13:00 - 0/8 0/8 - - -
Di, 21.01. 7:00 - 0/8 0/8 - - -
Di, 21.01. 1:00 - 0/8 0/8 - - -
Ortszeit Bedeckungsgrad in Achtel und Wolkenuntergrenze
Mi, 22.01. 21:00 8(<30m)
Mi, 22.01. 20:50 8(<30m)
Mi, 22.01. 20:40 8(<30m)
Mi, 22.01. 20:30 7(30m)
Mi, 22.01. 20:20 7(30m)
Mi, 22.01. 20:10 6(30m)
Mi, 22.01. 20:00 1(120m)
Mi, 22.01. 19:30 keine Wolken
Mi, 22.01. 19:00 keine Wolken
Mi, 22.01. 18:30 keine Wolken
Mi, 22.01. 18:00 keine Wolken
Ortszeit Luftdruck NN (hPa) Tendenz (hPa in 3 Std.)
Mi, 22.01. 19:00 1037 + 1,2
Mi, 22.01. 13:00 1033 - 2,4
Mi, 22.01. 7:00 1039 - 0,5
Mi, 22.01. 1:00 1041 - 0,8
Di, 21.01. 19:00 1042 - 0,7
Di, 21.01. 13:00 1041 - 1,4
Di, 21.01. 7:00 1046 + 0,2
Di, 21.01. 1:00 1047 - 0,8
Ortszeit Luftdruck NN (hPa) Tendenz (hPa in 3 Std.)
Mi, 22.01. 21:00 1038 + 1,6
Mi, 22.01. 20:50 1038 keine Meldung
Mi, 22.01. 20:40 1038 keine Meldung
Mi, 22.01. 20:30 1037 + 1,3
Mi, 22.01. 20:20 1037 keine Meldung
Mi, 22.01. 20:10 1037 keine Meldung
Mi, 22.01. 20:00 1037 + 1,1
Mi, 22.01. 19:30 1037 + 1,2
Mi, 22.01. 19:00 1037 + 1,2
Mi, 22.01. 18:30 1036 + 0,7
Mi, 22.01. 18:00 1036 + 0,3
Ortszeit Schneehöhe (cm)
Mi, 22.01. 19:00 1
Mi, 22.01. 13:00 -
Mi, 22.01. 7:00 2
Mi, 22.01. 1:00 2
Di, 21.01. 19:00 2
Di, 21.01. 13:00 2
Di, 21.01. 7:00 2
Di, 21.01. 1:00 2
Ortszeit Schneehöhe (cm)
Mi, 22.01. 21:00 1
Mi, 22.01. 20:50 1
Mi, 22.01. 20:40 1
Mi, 22.01. 20:30 1
Mi, 22.01. 20:20 1
Mi, 22.01. 20:10 1
Mi, 22.01. 20:00 1
Mi, 22.01. 19:30 1
Mi, 22.01. 19:00 1
Mi, 22.01. 18:30 1
Mi, 22.01. 18:00 1
Link zu dieser Seite / Seite empfehlen

Das Wetter in ...